GW3759 Weather Reports


Display with metric or nautical units.
time (UTC)temp
F
wind
direction
speed
MPH
gust
MPH
rain 1hr
in
rain 24hr
in
rain mn
in
humidity
%
barometer
mb
20260902003028 83 146 0.0 0.0 0.00 0.00 0.00 87 1014.7
20260902001511 83 146 0.0 0.0 0.00 0.00 0.00 86 1014.7
20260902000024 84 146 0.0 0.0 0.00 0.00 0.00 85 1014.5
20260901234515 85 146 0.0 0.0 0.00 0.00 0.00 84 1014.6
20260901233003 85 146 0.0 0.0 0.00 0.00 0.00 82 1014.8
20260901231509 86 146 0.0 0.0 0.00 0.00 0.00 81 1014.5
20260901230006 87 146 0.0 0.0 0.00 0.00 0.00 79 1014.8
20260901224503 88 146 0.0 0.0 0.00 0.00 0.00 75 1015.0
20260901223003 90 146 0.0 0.0 0.00 0.00 0.00 72 1014.9
20260901221503 91 146 0.0 4.0 0.00 0.00 0.00 65 1015.1
20260901220013 92 159 1.0 5.0 0.00 0.00 0.00 62 1015.2
20260901214507 91 171 0.0 4.0 0.00 0.00 0.00 66 1015.2
20260901213003 92 123 1.0 6.0 0.00 0.00 0.00 61 1015.3
20260901211504 92 126 3.0 8.0 0.00 0.00 0.00 60 1015.1
20260901210009 92 178 4.0 7.0 0.00 0.00 0.00 59 1015.2
20260901204503 92 113 3.0 8.0 0.00 0.00 0.00 61 1015.3
20260901203020 91 164 2.0 5.0 0.00 0.00 0.00 59 1015.5
20260901201504 91 159 1.0 6.0 0.00 0.00 0.00 63 1015.8
20260901200004 91 281 1.0 9.0 0.00 0.00 0.00 61 1015.8
20260901194508 91 184 4.0 10.0 0.00 0.00 0.00 63 1016.0
20260901193004 91 165 1.0 7.0 0.00 0.00 0.00 62 1016.2
20260901191504 91 101 1.0 5.0 0.00 0.00 0.00 58 1016.4
20260901190004 91 98 0.0 4.0 0.00 0.00 0.00 60 1016.4
20260901184507 91 155 4.0 10.0 0.00 0.00 0.00 60 1016.4
20260901183022 91 292 0.0 5.0 0.00 0.00 0.00 59 1016.5
20260901181512 91 269 0.0 2.0 0.00 0.00 0.00 60 1016.5
20260901180007 90 47 1.0 7.0 0.00 0.00 0.00 60 1016.7
20260901174503 90 283 0.0 5.0 0.00 0.00 0.00 61 1016.7
20260901173002 89 130 2.0 8.0 0.00 0.00 0.00 62 1016.8
20260901171502 89 152 1.0 7.0 0.00 0.00 0.00 62 1016.7
20260901170004 89 159 3.0 6.0 0.00 0.00 0.00 65 1016.7
20260901164503 88 156 2.0 6.0 0.00 0.00 0.00 64 1017.0
20260901163017 88 259 0.0 7.0 0.00 0.00 0.00 63 1017.1
20260901161509 87 161 0.0 6.0 0.00 0.00 0.00 65 1017.1
20260901160003 87 155 4.0 6.0 0.00 0.00 0.00 68 1017.4
20260901154507 87 148 2.0 8.0 0.00 0.00 0.00 66 1017.4
20260901153004 86 148 3.0 6.0 0.00 0.00 0.00 70 1017.6
20260901151504 85 158 2.0 6.0 0.00 0.00 0.00 72 1017.7
20260901150008 85 134 1.0 4.0 0.00 0.00 0.00 72 1017.8
20260901144506 84 141 1.0 4.0 0.00 0.00 0.00 74 1017.9
20260901143005 83 126 0.0 5.0 0.00 0.00 0.00 75 1017.9
20260901141506 82 159 3.0 5.0 0.00 0.00 0.00 78 1017.9
20260901140004 80 142 1.0 5.0 0.00 0.00 0.00 81 1017.8
20260901134505 79 172 1.0 4.0 0.00 0.00 0.00 85 1017.9
20260901133010 78 115 0.0 2.0 0.00 0.00 0.00 87 1018.0
20260901131507 77 154 2.0 6.0 0.00 0.00 0.00 87 1018.2
20260901130011 75 150 1.0 4.0 0.00 0.00 0.00 91 1018.2
20260901124508 75 173 1.0 4.0 0.00 0.00 0.00 91 1018.2
20260901123007 75 192 1.0 4.0 0.00 0.00 0.00 92 1018.2
20260901121504 74 198 0.0 3.0 0.00 0.00 0.00 93 1018.2
20260901120006 74 143 2.0 4.0 0.00 0.00 0.00 93 1018.1
20260901114517 74 136 1.0 4.0 0.00 0.00 0.00 93 1017.9
20260901113020 73 170 1.0 4.0 0.00 0.00 0.00 94 1017.9
20260901111508 73 351 0.0 0.0 0.00 0.00 0.00 95 1017.7
20260901110012 73 352 0.0 0.0 0.00 0.00 0.00 95 1017.7
20260901104508 72 352 0.0 0.0 0.00 0.00 0.00 95 1017.5
20260901103009 72 352 0.0 0.0 0.00 0.00 0.00 95 1017.6
20260901101523 73 352 0.0 0.0 0.00 0.00 0.00 95 1017.4
20260901100011 73 352 0.0 0.0 0.00 0.00 0.00 95 1017.3
20260901094514 73 346 0.0 0.0 0.00 0.00 0.00 95 1017.3
20260901093014 73 346 0.0 0.0 0.00 0.00 0.00 95 1017.3
20260901091515 73 346 0.0 0.0 0.00 0.00 0.00 94 1017.4
20260901090008 73 330 0.0 0.0 0.00 0.00 0.00 95 1017.4
20260901084513 73 330 0.0 0.0 0.00 0.00 0.00 95 1017.4
20260901083002 73 330 0.0 0.0 0.00 0.00 0.00 95 1017.6
20260901081502 73 330 0.0 0.0 0.00 0.00 0.00 95 1017.5
20260901080003 74 330 0.0 0.0 0.00 0.00 0.00 95 1017.5
20260901074506 73 330 0.0 0.0 0.00 0.00 0.00 95 1017.7
20260901073002 74 330 0.0 0.0 0.00 0.00 0.00 95 1017.8
20260901071503 74 330 0.0 0.0 0.00 0.00 0.00 94 1017.8
20260901070005 74 330 0.0 0.0 0.00 0.00 0.00 95 1017.9
20260901064502 74 330 0.0 0.0 0.00 0.00 0.00 95 1018.0
20260901063003 74 330 0.0 0.0 0.00 0.00 0.00 95 1018.0
20260901061503 74 330 0.0 0.0 0.00 0.00 0.00 94 1018.2
20260901060003 74 330 0.0 0.0 0.00 0.00 0.00 94 1018.2
20260901054507 74 330 0.0 0.0 0.00 0.00 0.00 94 1018.3
20260901053004 75 330 0.0 0.0 0.00 0.00 0.00 94 1018.5
20260901051507 75 330 0.0 0.0 0.00 0.00 0.00 94 1018.6
20260901050004 75 330 0.0 0.0 0.00 0.00 0.00 93 1018.6
20260901044505 75 329 0.0 0.0 0.00 0.00 0.00 93 1018.8
20260901043003 75 330 0.0 0.0 0.00 0.00 0.00 93 1018.7
20260901041509 75 330 0.0 0.0 0.00 0.00 0.00 92 1018.9
20260901040008 76 329 0.0 0.0 0.00 0.00 0.00 92 1018.9
20260901034503 76 330 0.0 1.0 0.00 0.00 0.00 93 1018.9
20260901033006 76 330 0.0 0.0 0.00 0.00 0.00 93 1018.8
20260901031503 76 330 0.0 2.0 0.00 0.00 0.00 92 1018.9
20260901030013 77 315 0.0 1.0 0.00 0.00 0.00 91 1018.8
20260901024516 77 315 0.0 1.0 0.00 0.00 0.00 90 1018.8
20260901023014 78 315 0.0 1.0 0.00 0.02 0.00 90 1018.7
20260901021515 78 315 0.0 0.0 0.00 0.02 0.00 88 1018.7
20260901020016 78 315 0.0 0.0 0.00 0.02 0.00 87 1018.7
20260901014507 79 315 0.0 0.0 0.00 0.02 0.00 87 1018.7
20260901013031 79 315 0.0 0.0 0.00 0.02 0.00 87 1018.7
20260901011510 80 315 0.0 2.0 0.00 0.02 0.00 88 1018.5
20260901010020 80 329 0.0 0.0 0.00 0.02 0.00 88 1018.5
20260901004515 80 329 0.0 0.0 0.00 0.02 0.00 87 1018.2